WA9AFM-10 Weather Reports


time (UTC)temp
C
wind
direction
speed
KPH
gust
KPH
rain 1hr
cm
rain 24hr
cm
rain mn
cm
humidity
%
barometer
mb
20260509234148 28 357 1.6 0.0 0.00 0.00 0.00 42 1002.5
20260509224149 30 24 0.0 0.0 0.00 0.00 0.00 40 1003.2
20260509214147 31 353 1.6 0.0 0.00 0.00 0.00 38 1003.3
20260509211148 30 327 6.4 0.0 0.00 0.00 0.00 37 1003.8
20260509204148 30 312 1.6 0.0 0.00 0.00 0.00 38 1004.0
20260509201149 30 321 0.0 0.0 0.00 0.00 0.00 39 1004.4
20260509194149 30 244 0.0 0.0 0.00 0.00 0.00 37 1004.7
20260509191149 30 238 4.8 0.0 0.00 0.00 0.00 37 1005.1
20260509184148 29 51 0.0 0.0 0.00 0.00 0.00 41 1005.4
20260509181148 28 336 0.0 0.0 0.00 0.00 0.00 41 1005.8
20260509174149 28 59 0.0 0.0 0.00 0.00 0.00 46 1006.2
20260509164148 26 312 0.0 0.0 0.00 0.00 0.00 53 1006.7
20260509161148 25 327 3.2 0.0 0.00 0.00 0.00 65 1006.8
20260509154222 23 258 1.6 0.0 0.00 0.00 0.00 67 1006.5
20260509154149 23 258 1.6 0.0 0.00 0.00 0.00 67 1006.5
20260509131424 16 315 0.0 0.0 0.00 0.00 0.00 99 1006.2
20260509131152 16 315 0.0 0.0 0.00 0.00 0.00 99 1006.2
20260509121302 12 314 0.0 0.0 0.00 0.00 0.00 98 1005.7
20260509121148 12 314 0.0 0.0 0.00 0.00 0.00 98 1005.7
20260509114150 12 314 0.0 0.0 0.00 0.00 0.00 98 1005.3
20260509111242 12 314 0.0 0.0 0.00 0.00 0.00 98 1005.0
20260509111149 12 314 0.0 0.0 0.00 0.00 0.00 98 1005.0
20260509104223 12 314 0.0 0.0 0.00 0.00 0.00 98 1004.9
20260509104148 12 314 0.0 0.0 0.00 0.00 0.00 98 1004.9
20260509101230 13 314 0.0 0.0 0.00 0.00 0.00 98 1005.3
20260509101148 13 314 0.0 0.0 0.00 0.00 0.00 98 1005.3
20260509091149 13 314 0.0 0.0 0.00 0.00 0.00 98 1005.4
20260509084148 13 314 0.0 0.0 0.00 0.00 0.00 98 1005.2
20260509081148 13 318 0.0 0.0 0.00 0.00 0.00 98 1005.5
20260509074149 13 317 0.0 0.0 0.00 0.00 0.00 98 1005.8
20260509071147 14 317 0.0 0.0 0.00 0.00 0.00 98 1005.9
20260509064148 15 318 0.0 0.0 0.00 0.00 0.00 98 1006.1
20260509051147 16 198 0.0 0.0 0.00 0.00 0.00 98 1005.9
20260509044148 15 211 0.0 0.0 0.00 0.00 0.00 98 1005.8
20260509034241 16 332 4.8 0.0 0.00 0.00 0.00 98 1005.5
20260509034148 16 332 4.8 0.0 0.00 0.00 0.00 98 1005.5
20260509024226 16 197 0.0 0.0 0.00 0.00 0.00 97 1004.1
20260509024149 16 197 0.0 0.0 0.00 0.00 0.00 97 1004.1
20260509014147 16 274 0.0 0.0 0.00 0.00 0.00 97 1003.5
20260509004148 17 61 0.0 0.0 0.00 0.00 0.00 96 1002.4
20260509001148 17 319 0.0 0.0 0.00 0.00 0.00 96 1001.6